Location: Unspecified
(0.0000°N, 0.0000°E)
Time: 02:22:49
(UTC+02:00)

Haruka - Visible Passes

Search period start: 23 August 2017 00:00
Search period end: 02 September 2017 00:00
Orbit: 512 x 21244 km, 31.2° (Epoch: 22 August)

Date Brightness Start Highest point End Pass type
(mag) Time Alt. Az. Time Alt. Az. Time Alt. Az.
23 Aug 7.8 21:35:04 10° WNW 02:05:30 64° N 02:05:30 64° N visible
24 Aug 7.4 15:35:46 10° WSW 15:52:21 87° NW 20:18:44 10° ENE visible
24 Aug 7.1 23:30:09 10° WNW 03:41:24 - ESE 03:08:41 50° NW visible
25 Aug 8.1 16:43:44 10° WSW 17:10:18 69° NNW 21:51:08 10° ENE visible
26 Aug 6.3 02:58:25 10° WNW 04:45:46 16° SE 04:46:35 10° SE visible
26 Aug 8.4 17:53:27 10° W 18:42:23 57° NNW 22:59:24 24° ENE visible
27 Aug 5.7 05:14:47 10° WNW 05:50:08 21° S 05:52:12 10° SSE visible
27 Aug 8.1 19:06:11 10° W 23:31:08 54° NNE 00:02:46 45° ENE visible
28 Aug 8.0 20:24:53 10° WNW 01:06:11 64° NNE 01:06:11 64° NNE visible
29 Aug 8.1 21:57:08 10° WNW 02:09:39 60° NW 02:09:39 60° NW visible
30 Aug 7.6 15:45:09 10° WSW 16:04:06 74° NNW 20:40:24 10° ENE visible
31 Aug 8.3 00:12:53 10° WNW 03:13:11 41° WNW 03:13:11 41° WNW visible
31 Aug 8.4 16:53:50 10° W 17:26:32 60° NNW 22:00:52 16° ENE visible
01 Sep 6.4 03:38:19 10° WNW 04:55:21 - SSE 04:16:46 21° WNW visible
01 Sep 8.3 18:04:44 10° W 19:15:42 51° NNW 23:04:29 36° ENE visible
